Tracking 32991 objects as of 22-Jan-2026
HD Live streaming from Space Station
objects crossing your sky now

QIANFAN-91

Track QIANFAN-91 now!
10-day predictions
QIANFAN-91 is classified as:


NORAD ID: 66033
Int'l Code: 2025-233A
Perigee: 1,074.3 km
Apogee: 1,077.2 km
Inclination: 89.0 °
Period: 106.6 minutes
Semi major axis: 7446 km
RCS: Unknown
Launch date: October 17, 2025
Source: People's Republic of China (PRC)
Launch site: Taiyaun Space Center, China (TSC)
Your satellite tracking list
Your tracking list is empty




NASA's NSSDC Master Catalog

Two Line Element Set (TLE):
1 66033U 25233A   26022.45129480  .00000101  00000-0  13714-3 0  9999
2 66033  88.9915  57.9602 0001901  90.5432 269.5937 13.50990778 13502
Source of the keplerian elements: AFSPC